WMT54RT EDFH-LRTR

Flight info

Callsign WMT54RT
Flight time 1h 39m
Altitude 37000
Route ULKIG1L ULKIG Z100 RUDUS L984 LOHRE DCT BOREP DCT ENITA DCT ETVIS DCT DITIS DCT ALAMU DCT TEGRI
Aircraft A320/M-SDE1E2E3FGIJ1J4RWXY/PB1

Departure

Time 2026-05-07 10:05
Airport Frankfurt-Hahn Airport (EDFH)

Arrival

Time 2026-05-07 11:45
Airport Timișoara Traian Vuia International Airport (LRTR)
Time Latitude Longitude Altitude Speed Heading
2026-05-07 09:50 49.94651 7.26813 1609 ft 0 kts 212°
2026-05-07 09:57 49.94655 7.26818 1609 ft 2 kts 212°
2026-05-07 09:57 49.94668 7.26831 1609 ft 2 kts 211°
2026-05-07 09:57 49.94678 7.26846 1608 ft 2 kts 255°
2026-05-07 09:58 49.94678 7.26868 1607 ft 0 kts 298°
2026-05-07 09:58 49.94673 7.26877 1606 ft 0 kts 309°
2026-05-07 09:58 49.94682 7.26857 1608 ft 0 kts 301°
2026-05-07 09:58 49.94682 7.26856 1608 ft 0 kts 301°
2026-05-07 10:01 49.94682 7.26857 1608 ft 2 kts 301°
2026-05-07 10:01 49.94699 7.26812 1610 ft 7 kts 301°
2026-05-07 10:01 49.94722 7.26756 1613 ft 2 kts 302°
2026-05-07 10:02 49.94727 7.26746 1613 ft 0 kts 322°
2026-05-07 10:02 49.94745 7.26750 1614 ft 4 kts 31°
2026-05-07 10:02 49.94785 7.26790 1613 ft 8 kts 33°
2026-05-07 10:02 49.94844 7.26849 1611 ft 11 kts 33°
2026-05-07 10:03 49.94915 7.26835 1612 ft 11 kts 308°
2026-05-07 10:03 49.94946 7.26774 1614 ft 3 kts 309°
2026-05-07 10:03 49.94960 7.26753 1615 ft 3 kts 324°
2026-05-07 10:03 49.95000 7.26738 1616 ft 9 kts 353°
2026-05-07 10:04 49.95084 7.26725 1615 ft 13 kts 355°
2026-05-07 10:04 49.95139 7.26673 1616 ft 8 kts 260°
2026-05-07 10:04 49.95114 7.26631 1616 ft 0 kts 212°
2026-05-07 10:04 49.95013 7.26532 1621 ft 47 kts 212°
2026-05-07 10:05 49.94556 7.26082 1636 ft 105 kts 212°
2026-05-07 10:05 49.93745 7.25283 1642 ft 156 kts 212°
2026-05-07 10:05 49.92756 7.24305 1999 ft 168 kts 215°
2026-05-07 10:05 49.91780 7.23286 2513 ft 171 kts 217°
2026-05-07 10:06 49.90786 7.22230 3015 ft 179 kts 216°
2026-05-07 10:06 49.89688 7.21067 3407 ft 195 kts 216°
2026-05-07 10:06 49.88501 7.19838 3808 ft 212 kts 214°
2026-05-07 10:06 49.87223 7.18550 4176 ft 231 kts 214°
2026-05-07 10:07 49.85834 7.17130 4588 ft 251 kts 214°
2026-05-07 10:07 49.84331 7.15614 5173 ft 264 kts 214°
2026-05-07 10:07 49.82784 7.14048 5994 ft 266 kts 214°
2026-05-07 10:07 49.81217 7.12465 6836 ft 268 kts 214°
2026-05-07 10:08 49.79658 7.10886 7624 ft 271 kts 215°
2026-05-07 10:08 49.78234 7.08833 8389 ft 271 kts 241°
2026-05-07 10:08 49.77671 7.06028 9146 ft 269 kts 270°
2026-05-07 10:08 49.78015 7.03232 9830 ft 270 kts 296°
2026-05-07 10:09 49.79163 7.00953 10491 ft 272 kts 323°
2026-05-07 10:09 49.80854 6.99746 11122 ft 275 kts 349°
2026-05-07 10:09 49.82775 6.99894 11752 ft 280 kts 15°
2026-05-07 10:09 49.84547 7.01135 12367 ft 284 kts 31°
2026-05-07 10:10 49.86006 7.03216 12808 ft 296 kts 56°
2026-05-07 10:10 49.86698 7.06255 13064 ft 313 kts 84°
2026-05-07 10:10 49.86719 7.09733 13393 ft 326 kts 89°
2026-05-07 10:10 49.86710 7.13230 13891 ft 332 kts 89°
2026-05-07 10:11 49.86715 7.16836 14515 ft 334 kts 89°
2026-05-07 10:11 49.86730 7.20433 15104 ft 337 kts 88°
2026-05-07 10:11 49.86749 7.24047 15653 ft 340 kts 88°
2026-05-07 10:11 49.86770 7.27688 16200 ft 343 kts 88°
2026-05-07 10:12 49.86792 7.31430 16739 ft 346 kts 88°
2026-05-07 10:12 49.86814 7.35133 17280 ft 348 kts 88°
2026-05-07 10:12 49.86835 7.38864 17808 ft 350 kts 88°
2026-05-07 10:12 49.86855 7.42651 18333 ft 352 kts 88°
2026-05-07 10:13 49.86874 7.46415 18847 ft 354 kts 88°
2026-05-07 10:13 49.86891 7.50239 19331 ft 357 kts 88°
2026-05-07 10:13 49.86908 7.54144 19817 ft 360 kts 88°
2026-05-07 10:13 49.86923 7.58010 20282 ft 363 kts 88°
2026-05-07 10:14 49.86937 7.61918 20736 ft 366 kts 88°
2026-05-07 10:14 49.86949 7.65889 21187 ft 369 kts 89°
2026-05-07 10:14 49.87106 7.69813 21604 ft 371 kts 78°
2026-05-07 10:14 49.87918 7.73589 22034 ft 371 kts 61°
2026-05-07 10:15 49.89333 7.76935 22483 ft 371 kts 51°
2026-05-07 10:15 49.90920 7.80077 22908 ft 373 kts 50°
2026-05-07 10:15 49.92547 7.83253 23322 ft 376 kts 50°
2026-05-07 10:15 49.94147 7.86403 23729 ft 378 kts 50°
2026-05-07 10:16 49.95773 7.89641 24145 ft 380 kts 50°
2026-05-07 10:16 49.97393 7.92891 24537 ft 383 kts 50°
2026-05-07 10:16 49.99020 7.96173 24915 ft 385 kts 51°
2026-05-07 10:16 50.00642 7.99452 25306 ft 387 kts 51°
2026-05-07 10:17 50.02297 8.02806 25687 ft 390 kts 51°
2026-05-07 10:17 50.03788 8.06323 26028 ft 394 kts 63°
2026-05-07 10:17 50.04684 8.10367 26407 ft 397 kts 78°
2026-05-07 10:17 50.04941 8.14653 26790 ft 399 kts 87°
2026-05-07 10:18 50.04980 8.18958 27153 ft 401 kts 88°
2026-05-07 10:18 50.04999 8.23272 27506 ft 403 kts 88°
2026-05-07 10:18 50.05026 8.27657 27879 ft 404 kts 88°
2026-05-07 10:18 50.05062 8.32019 28229 ft 405 kts 88°
2026-05-07 10:19 50.05106 8.36398 28563 ft 407 kts 88°
2026-05-07 10:19 50.05152 8.40809 28895 ft 408 kts 88°
2026-05-07 10:19 50.05196 8.45247 29210 ft 410 kts 88°
2026-05-07 10:19 50.05240 8.49671 29521 ft 412 kts 88°
2026-05-07 10:20 50.05283 8.54129 29818 ft 413 kts 88°
2026-05-07 10:20 50.05326 8.58609 30092 ft 415 kts 88°
2026-05-07 10:20 50.05367 8.63122 30367 ft 417 kts 88°
2026-05-07 10:20 50.05430 8.67615 30630 ft 419 kts 88°
2026-05-07 10:21 50.05516 8.72203 30909 ft 421 kts 87°
2026-05-07 10:21 50.05601 8.76680 31196 ft 421 kts 87°
2026-05-07 10:21 50.05685 8.81229 31426 ft 422 kts 87°
2026-05-07 10:21 50.05770 8.85843 31642 ft 424 kts 87°
2026-05-07 10:22 50.05853 8.90416 31839 ft 425 kts 87°
2026-05-07 10:22 50.05934 8.95073 32024 ft 427 kts 87°
2026-05-07 10:22 50.06012 8.99719 32185 ft 429 kts 87°
2026-05-07 10:22 50.06088 9.04362 32333 ft 431 kts 88°
2026-05-07 10:23 50.06160 9.08983 32478 ft 433 kts 88°
2026-05-07 10:23 50.06229 9.13667 32647 ft 434 kts 88°
2026-05-07 10:23 50.06298 9.18361 32848 ft 434 kts 88°
2026-05-07 10:23 50.06365 9.23061 33057 ft 433 kts 88°
2026-05-07 10:24 50.06430 9.27748 33232 ft 434 kts 88°
2026-05-07 10:24 50.06493 9.32457 33385 ft 435 kts 88°
2026-05-07 10:24 50.06554 9.37180 33510 ft 436 kts 88°
2026-05-07 10:24 50.06612 9.41863 33676 ft 437 kts 88°
2026-05-07 10:25 50.06612 9.46551 33808 ft 439 kts 91°
2026-05-07 10:25 50.06433 9.51332 33953 ft 440 kts 95°
2026-05-07 10:25 50.06083 9.56050 34095 ft 441 kts 97°
2026-05-07 10:25 50.05684 9.60767 34246 ft 442 kts 97°
2026-05-07 10:26 50.05280 9.65470 34379 ft 443 kts 98°
2026-05-07 10:26 50.04870 9.70216 34538 ft 444 kts 98°
2026-05-07 10:26 50.04455 9.75017 34676 ft 445 kts 98°
2026-05-07 10:26 50.04045 9.79756 34823 ft 446 kts 98°
2026-05-07 10:27 50.03632 9.84531 34939 ft 447 kts 98°
2026-05-07 10:27 50.02796 9.94126 34968 ft 447 kts 98°
2026-05-07 10:28 50.01958 10.03654 34970 ft 447 kts 98°
2026-05-07 10:28 50.01105 10.13255 34973 ft 447 kts 98°
2026-05-07 10:29 50.00245 10.22865 34968 ft 448 kts 98°
2026-05-07 10:29 49.99381 10.32414 34966 ft 448 kts 98°
2026-05-07 10:30 49.98063 10.46811 34977 ft 448 kts 98°
2026-05-07 10:30 49.97176 10.56376 34972 ft 448 kts 98°
2026-05-07 10:31 49.96163 10.65902 34975 ft 447 kts 103°
2026-05-07 10:31 49.94898 10.75289 34968 ft 447 kts 103°
2026-05-07 10:32 49.93602 10.84787 34970 ft 447 kts 103°
2026-05-07 10:32 49.92310 10.94220 34967 ft 447 kts 103°
2026-05-07 10:33 49.91009 11.03676 34971 ft 446 kts 103°
2026-05-07 10:33 49.89703 11.13112 34965 ft 447 kts 103°
2026-05-07 10:34 49.88385 11.22570 34962 ft 447 kts 103°
2026-05-07 10:34 49.87062 11.32017 34955 ft 447 kts 103°
2026-05-07 10:35 49.85734 11.41430 34956 ft 447 kts 104°
2026-05-07 10:35 49.84402 11.50813 34960 ft 447 kts 104°
2026-05-07 10:36 49.83059 11.60209 34957 ft 447 kts 104°
2026-05-07 10:36 49.81705 11.69629 34959 ft 447 kts 104°
2026-05-07 10:37 49.80356 11.78954 34954 ft 447 kts 105°
2026-05-07 10:37 49.78981 11.88395 34961 ft 447 kts 105°
2026-05-07 10:38 49.77604 11.97815 34959 ft 448 kts 105°
2026-05-07 10:38 49.76222 12.07193 34962 ft 448 kts 105°
2026-05-07 10:39 49.74841 12.16517 34958 ft 448 kts 105°
2026-05-07 10:39 49.73447 12.25880 34953 ft 448 kts 105°
2026-05-07 10:40 49.72026 12.35351 34949 ft 448 kts 105°
2026-05-07 10:40 49.70612 12.44712 34945 ft 448 kts 105°
2026-05-07 10:41 49.69251 12.54097 34941 ft 449 kts 104°
2026-05-07 10:41 49.67961 12.63435 34947 ft 449 kts 104°
2026-05-07 10:42 49.66639 12.72844 34950 ft 449 kts 106°
2026-05-07 10:42 49.64911 12.82110 34952 ft 446 kts 113°
2026-05-07 10:43 49.62505 12.90876 34955 ft 443 kts 120°
2026-05-07 10:43 49.59813 12.99370 34953 ft 442 kts 120°
2026-05-07 10:44 49.57086 13.07951 34961 ft 443 kts 120°
2026-05-07 10:44 49.54376 13.16461 34967 ft 443 kts 120°
2026-05-07 10:45 49.51671 13.24944 34965 ft 443 kts 120°
2026-05-07 10:45 49.48965 13.33407 34964 ft 442 kts 120°
2026-05-07 10:46 49.46217 13.41969 34962 ft 443 kts 121°
2026-05-07 10:46 49.43494 13.50417 34962 ft 444 kts 121°
2026-05-07 10:47 49.40767 13.58857 34959 ft 443 kts 121°
2026-05-07 10:47 49.38029 13.67297 34949 ft 442 kts 121°
2026-05-07 10:48 49.35288 13.75728 34945 ft 441 kts 122°
2026-05-07 10:48 49.32535 13.84163 34948 ft 442 kts 122°
2026-05-07 10:49 49.29787 13.92550 34943 ft 442 kts 122°
2026-05-07 10:49 49.27034 14.00921 34938 ft 442 kts 122°
2026-05-07 10:50 49.24280 14.09274 34928 ft 442 kts 122°
2026-05-07 10:50 49.21511 14.17646 34956 ft 442 kts 122°
2026-05-07 10:51 49.18703 14.26117 34951 ft 441 kts 122°
2026-05-07 10:51 49.15935 14.34422 34946 ft 441 kts 122°
2026-05-07 10:52 49.13145 14.42769 34966 ft 441 kts 122°
2026-05-07 10:52 49.10359 14.51087 34952 ft 440 kts 123°
2026-05-07 10:53 49.07574 14.59368 34979 ft 441 kts 123°
2026-05-07 10:53 49.04768 14.67685 34966 ft 440 kts 124°
2026-05-07 10:54 49.01970 14.75951 34972 ft 440 kts 124°
2026-05-07 10:54 48.99166 14.84212 34970 ft 439 kts 124°
2026-05-07 10:55 48.96347 14.92494 34985 ft 439 kts 124°
2026-05-07 10:55 48.93535 15.00727 34979 ft 439 kts 124°
2026-05-07 10:56 48.90717 15.08940 34969 ft 438 kts 124°
2026-05-07 10:56 48.87894 15.17188 34964 ft 438 kts 124°
2026-05-07 10:57 48.85109 15.25370 34974 ft 438 kts 124°
2026-05-07 10:57 48.82305 15.33574 34975 ft 438 kts 124°
2026-05-07 10:58 48.79495 15.41772 34973 ft 437 kts 124°
2026-05-07 10:58 48.76685 15.49945 34965 ft 436 kts 124°
2026-05-07 10:59 48.73869 15.58103 34893 ft 435 kts 124°
2026-05-07 10:59 48.71047 15.66255 34943 ft 436 kts 125°
2026-05-07 11:00 48.68229 15.74369 34963 ft 435 kts 125°
2026-05-07 11:00 48.65417 15.82444 34947 ft 435 kts 125°
2026-05-07 11:01 48.62577 15.90568 34981 ft 435 kts 126°
2026-05-07 11:01 48.59739 15.98663 34985 ft 434 kts 125°
2026-05-07 11:02 48.56902 16.06733 34968 ft 433 kts 125°
2026-05-07 11:02 48.54075 16.14748 34982 ft 434 kts 126°
2026-05-07 11:03 48.51216 16.22824 34969 ft 435 kts 126°
2026-05-07 11:03 48.48341 16.30926 34968 ft 435 kts 126°
2026-05-07 11:04 48.45482 16.38955 34966 ft 435 kts 126°
2026-05-07 11:04 48.42600 16.47023 34974 ft 436 kts 125°
2026-05-07 11:05 48.39674 16.55187 34968 ft 435 kts 125°
2026-05-07 11:05 48.36752 16.63326 34967 ft 435 kts 125°
2026-05-07 11:06 48.33855 16.71361 34965 ft 435 kts 126°
2026-05-07 11:06 48.30950 16.79399 34977 ft 434 kts 126°
2026-05-07 11:07 48.28028 16.87455 34972 ft 435 kts 126°
2026-05-07 11:07 48.25067 16.95595 34972 ft 434 kts 126°
2026-05-07 11:08 48.22158 17.03558 34971 ft 435 kts 126°
2026-05-07 11:08 48.19247 17.11515 34959 ft 436 kts 126°
2026-05-07 11:09 48.16311 17.19515 34958 ft 436 kts 126°
2026-05-07 11:09 48.13355 17.27537 34952 ft 436 kts 126°
2026-05-07 11:10 48.10421 17.35485 34953 ft 436 kts 126°
2026-05-07 11:10 48.07489 17.43398 34944 ft 436 kts 126°
2026-05-07 11:11 48.04539 17.51336 34949 ft 437 kts 126°
2026-05-07 11:11 48.01577 17.59283 34933 ft 437 kts 126°
2026-05-07 11:12 47.98632 17.67163 34929 ft 438 kts 127°
2026-05-07 11:12 47.95633 17.75166 34924 ft 438 kts 127°
2026-05-07 11:13 47.92635 17.83134 34934 ft 438 kts 127°
2026-05-07 11:13 47.89605 17.91168 34931 ft 438 kts 127°
2026-05-07 11:14 47.86631 17.99031 34932 ft 438 kts 127°
2026-05-07 11:14 47.83623 18.06959 34935 ft 438 kts 126°
2026-05-07 11:15 47.80618 18.14861 34946 ft 439 kts 126°
2026-05-07 11:15 47.77589 18.22799 34947 ft 438 kts 126°
2026-05-07 11:16 47.74519 18.30744 34948 ft 438 kts 128°
2026-05-07 11:16 47.71040 18.38227 34954 ft 433 kts 134°
2026-05-07 11:17 47.67363 18.45469 34959 ft 434 kts 134°
2026-05-07 11:17 47.63708 18.52652 34964 ft 436 kts 133°
2026-05-07 11:18 47.60036 18.59857 34966 ft 436 kts 133°
2026-05-07 11:18 47.56371 18.67032 34966 ft 436 kts 134°
2026-05-07 11:19 47.52679 18.74250 34970 ft 436 kts 134°
2026-05-07 11:19 47.49015 18.81386 34971 ft 436 kts 133°
2026-05-07 11:20 47.45336 18.88535 34976 ft 435 kts 133°
2026-05-07 11:20 47.41658 18.95664 34977 ft 437 kts 134°
2026-05-07 11:21 47.37954 19.02822 34978 ft 437 kts 133°
2026-05-07 11:21 47.34277 19.09914 34978 ft 438 kts 133°
2026-05-07 11:22 47.30539 19.17104 34979 ft 439 kts 133°
2026-05-07 11:22 47.26834 19.24210 34978 ft 439 kts 133°
2026-05-07 11:23 47.23117 19.31317 34978 ft 439 kts 133°
2026-05-07 11:23 47.19414 19.38384 34976 ft 439 kts 133°
2026-05-07 11:24 47.15677 19.45493 34977 ft 440 kts 133°
2026-05-07 11:24 47.11926 19.52616 34977 ft 440 kts 133°
2026-05-07 11:25 47.08198 19.59677 34981 ft 440 kts 133°
2026-05-07 11:25 47.04449 19.66757 34984 ft 440 kts 134°
2026-05-07 11:26 47.00674 19.73870 34966 ft 438 kts 134°
2026-05-07 11:26 46.98835 19.77334 34676 ft 433 kts 133°
2026-05-07 11:26 46.96981 19.80817 34016 ft 433 kts 133°
2026-05-07 11:27 46.95126 19.84296 33359 ft 433 kts 134°
2026-05-07 11:27 46.93250 19.87810 32714 ft 432 kts 134°
2026-05-07 11:27 46.91422 19.91225 32034 ft 432 kts 133°
2026-05-07 11:27 46.89578 19.94670 31457 ft 430 kts 133°
2026-05-07 11:28 46.87747 19.98088 30954 ft 426 kts 133°
2026-05-07 11:28 46.85886 20.01402 30438 ft 418 kts 140°
2026-05-07 11:28 46.83692 20.04095 29713 ft 413 kts 149°
2026-05-07 11:28 46.81344 20.06545 28761 ft 418 kts 150°
2026-05-07 11:29 46.78916 20.09032 27729 ft 425 kts 149°
2026-05-07 11:29 46.76499 20.11520 26715 ft 432 kts 148°
2026-05-07 11:29 46.74048 20.14064 25686 ft 438 kts 148°
2026-05-07 11:29 46.71394 20.16837 24621 ft 442 kts 148°
2026-05-07 11:30 46.68583 20.19782 23507 ft 445 kts 147°
2026-05-07 11:30 46.65773 20.22729 22430 ft 448 kts 147°
2026-05-07 11:30 46.63145 20.25490 21519 ft 447 kts 147°
2026-05-07 11:30 46.60331 20.28441 20601 ft 446 kts 147°
2026-05-07 11:31 46.57532 20.31374 19828 ft 441 kts 147°
2026-05-07 11:31 46.54994 20.34028 19147 ft 436 kts 146°
2026-05-07 11:31 46.52440 20.36697 18409 ft 428 kts 146°
2026-05-07 11:31 46.49871 20.39378 17362 ft 422 kts 146°
2026-05-07 11:32 46.44992 20.44462 15225 ft 412 kts 146°
2026-05-07 11:32 46.42704 20.46842 14372 ft 403 kts 147°
2026-05-07 11:32 46.40422 20.49214 13606 ft 393 kts 146°
2026-05-07 11:33 46.38161 20.51561 12675 ft 387 kts 146°
2026-05-07 11:33 46.35987 20.53815 11719 ft 383 kts 146°
2026-05-07 11:33 46.33658 20.56227 10727 ft 378 kts 146°
2026-05-07 11:33 46.31356 20.58607 10171 ft 359 kts 147°
2026-05-07 11:34 46.29221 20.60821 10093 ft 332 kts 146°
2026-05-07 11:34 46.27412 20.62693 10014 ft 310 kts 146°
2026-05-07 11:34 46.25571 20.64594 9923 ft 289 kts 147°
2026-05-07 11:34 46.23865 20.66349 9817 ft 284 kts 147°
2026-05-07 11:35 46.22221 20.68038 9698 ft 282 kts 147°
2026-05-07 11:35 46.20619 20.69684 9600 ft 283 kts 147°
2026-05-07 11:35 46.18877 20.71471 9382 ft 281 kts 147°
2026-05-07 11:35 46.17174 20.73220 9078 ft 281 kts 147°
2026-05-07 11:36 46.15525 20.74912 8742 ft 280 kts 147°
2026-05-07 11:36 46.13911 20.76566 8400 ft 279 kts 148°
2026-05-07 11:36 46.12278 20.78240 8048 ft 278 kts 148°
2026-05-07 11:36 46.10562 20.79996 7677 ft 277 kts 147°
2026-05-07 11:37 46.08936 20.81663 7332 ft 275 kts 147°
2026-05-07 11:37 46.07282 20.83356 6978 ft 275 kts 147°
2026-05-07 11:37 46.05560 20.85115 6597 ft 274 kts 148°
2026-05-07 11:37 46.03898 20.86813 6226 ft 272 kts 147°
2026-05-07 11:38 46.02330 20.88418 5896 ft 266 kts 147°
2026-05-07 11:38 46.00695 20.90082 5507 ft 256 kts 148°
2026-05-07 11:38 45.99128 20.91684 5180 ft 242 kts 148°
2026-05-07 11:38 45.97632 20.93206 4714 ft 238 kts 147°
2026-05-07 11:39 45.96194 20.94666 4218 ft 236 kts 147°
2026-05-07 11:39 45.94724 20.96158 3686 ft 235 kts 147°
2026-05-07 11:39 45.93233 20.97673 3444 ft 229 kts 147°
2026-05-07 11:39 45.91838 20.99091 3301 ft 220 kts 147°
2026-05-07 11:40 45.90485 21.00464 3194 ft 215 kts 147°
2026-05-07 11:40 45.89291 21.02080 3074 ft 211 kts 130°
2026-05-07 11:40 45.88473 21.04011 2969 ft 205 kts 117°
2026-05-07 11:40 45.87946 21.05947 2965 ft 202 kts 111°
2026-05-07 11:41 45.87465 21.08040 2965 ft 201 kts 111°
2026-05-07 11:41 45.86982 21.10092 2970 ft 201 kts 112°
2026-05-07 11:41 45.86476 21.12136 2967 ft 201 kts 112°
2026-05-07 11:41 45.85953 21.14195 2824 ft 202 kts 112°
2026-05-07 11:42 45.85414 21.16300 2594 ft 196 kts 112°
2026-05-07 11:42 45.84912 21.18268 2304 ft 184 kts 112°
2026-05-07 11:42 45.84475 21.19982 2055 ft 174 kts 111°
2026-05-07 11:42 45.84069 21.21578 1808 ft 162 kts 111°
2026-05-07 11:43 45.83691 21.23069 1569 ft 150 kts 111°
2026-05-07 11:43 45.83351 21.24426 1345 ft 138 kts 110°
2026-05-07 11:43 45.83026 21.25696 1153 ft 133 kts 111°
2026-05-07 11:43 45.82705 21.26930 999 ft 133 kts 110°
2026-05-07 11:44 45.82392 21.28184 845 ft 132 kts 109°
2026-05-07 11:44 45.82084 21.29428 677 ft 132 kts 110°
2026-05-07 11:44 45.81764 21.30668 510 ft 132 kts 109°
2026-05-07 11:44 45.81458 21.31895 350 ft 131 kts 110°
2026-05-07 11:45 45.81171 21.33042 347 ft 91 kts 110°
2026-05-07 11:45 45.81046 21.33526 347 ft 19 kts 121°
2026-05-07 11:45 45.80938 21.33556 347 ft 11 kts 200°
2026-05-07 11:45 45.80878 21.33513 346 ft 9 kts 220°
2026-05-07 11:46 45.80864 21.33413 347 ft 10 kts 284°
2026-05-07 11:46 45.80893 21.33295 347 ft 12 kts 289°
2026-05-07 11:46 45.80926 21.33166 347 ft 13 kts 289°
2026-05-07 11:46 45.80962 21.33023 346 ft 14 kts 289°
2026-05-07 11:47 45.81000 21.32875 346 ft 14 kts 289°
2026-05-07 11:47 45.81042 21.32708 344 ft 17 kts 290°
2026-05-07 11:47 45.81081 21.32557 343 ft 9 kts 290°
2026-05-07 11:47 45.81074 21.32464 343 ft 10 kts 206°
2026-05-07 11:48 45.81052 21.32396 343 ft 8 kts 290°
2026-05-07 11:48 45.81076 21.32301 343 ft 10 kts 289°
2026-05-07 11:48 45.81102 21.32196 343 ft 6 kts 289°
2026-05-07 11:48 45.81097 21.32159 343 ft 4 kts 208°
2026-05-07 11:49 45.81067 21.32144 343 ft 2 kts 199°
2026-05-07 11:49 45.81057 21.32139 343 ft 0 kts 199°